Find Starlink 33853

NORAD ID: 63684 Int'l Des: 2025-085 Owner: SPXS Country: US Constellation: starlink operational
LEOCIRCULAR

現在のビュー

3D地球を読み込み中...

About Starlink 33853

Starlink 33853 (NORAD 63684) is a starlink constellation satellite (v2 mini) launched Apr 28, 2025 by SPXS of US. It operates in LEO, CIRCULAR orbit with a mass of 575.00 kg.

次回通過

Passes for default location (London). Set your location on the main map for personalized predictions.

高度履歴

Loading altitude history...

軌道要素

1 63684U 25085W 26221.36641226 .00013570 00000-0 50142-3 0 9991
2 63684 42.9984 248.3483 0001267 282.2925 77.7785 15.27600387 72226
Epoch: Aug 9, 2026 • Age: 26 hours

現在のステータス

高度 482.5 km
遠地点 / 近地点 N/A
速度 7.63 km/s
衛星直下点 5.21°N, 62.03°W
打ち上げ日 Apr 28, 2025
運用期間 1.2 years
タイプ internet

技術仕様

分類 Payload
質量 575.00 kg
乾燥質量 530.00 kg
総質量 575.00 kg
長さ 0.30 m
直径 4.10 m
スパン 29.00 m
形状 Box + pan
製造者 SPXS
バスタイプ Starlink V2MO
フェーズステータス In Orbit
所有者/国 SPXS/US

Most Searched